Flag for Ireland Weather past 2 weeks in Dublin, Ireland

Now
57 °F

Partly cloudy.


Feels Like: 53 °F
Forecast: 57 / 65 °F
Wind: 23 mph from Southwest

Location: Dublin Airport

Current Time: Aug 4, 2015 at 12:57:12 AM

Latest Report: Aug 4, 2015 at 12:30 AM


Visibility: N/A

Pressure: 29.53 "Hg

Humidity: 72%

Dew point: 48 °F

Location of DublinLocation

Historic Weather in Dublin — Graph

°F

Dublin temperature yesterday

Maximum temperature yesterday: 66 °F (at 2:30 PM)
Minimum temperature yesterday: 57 °F (at 7:00 AM)
Average temperature yesterday: 61 °F

Past Weeks' High & Low Weather Summary

 TemperatureHumidityPressure
High70 °F (Jul 20, 2:00 PM)100% (Jul 25, 1:30 AM)30.15 "Hg (Jul 25, 1:30 AM)
Low43 °F (Jul 25, 3:00 AM)43% (Aug 1, 3:30 PM)29.30 "Hg (Jul 26, 5:00 PM)
Average56 °F79%29.81 "Hg
* Reported Midnight between Jul 19 and Jul 20 — Midnight between Aug 3 and Aug 4, Dublin, Weather by CustomWeather, © 2015

Note: Actual official high and low records may vary slightly from our data, if they occured in-between our weather recording intervals... More about our weather records

Advertising

Dublin weather history for previous 24 hours

 ConditionsComfort  
Time TempWeatherWind HumidityBarometerVisibility
12:00 AM
Tue, Aug 4
57 °FPartly cloudy.21 mph72%29.53 "HgN/A
11:30 PM
Mon, Aug 3
57 °FLight rain. Partly cloudy.22 mph72%29.53 "HgN/A
11:00 PM57 °FPartly cloudy.20 mph67%29.56 "HgN/A
10:30 PM57 °FPassing clouds.24 mph67%29.56 "HgN/A
10:00 PM57 °FBroken clouds.21 mph63%29.56 "HgN/A
9:30 PM57 °FPartly sunny.23 mph63%29.56 "HgN/A
9:00 PM57 °FPassing clouds.26 mph63%29.56 "HgN/A
8:30 PM59 °FScattered showers. Passing clouds.25 mph55%29.59 "HgN/A
8:00 PM59 °FScattered showers. Scattered clouds.23 mph55%29.59 "HgN/A
7:30 PM61 °FScattered clouds.23 mph55%29.56 "HgN/A
7:00 PM61 °FPartly sunny.25 mph55%29.59 "HgN/A
6:30 PM61 °FScattered clouds.25 mph55%29.59 "HgN/A
6:00 PM63 °FScattered showers. Broken clouds.26 mph56%29.59 "HgN/A
5:30 PM64 °FPartly sunny.25 mph49%29.59 "HgN/A
5:00 PM64 °FPartly sunny.28 mph49%29.59 "HgN/A
4:30 PM66 °FPartly sunny.24 mph49%29.59 "HgN/A
4:00 PM66 °FScattered showers. Scattered clouds.26 mph46%29.59 "HgN/A
3:30 PM66 °FScattered showers. Scattered clouds.23 mph46%29.62 "HgN/A
3:00 PM66 °FScattered showers. Scattered clouds.26 mph49%29.62 "HgN/A
2:30 PM66 °FScattered showers. Scattered clouds.21 mph52%29.62 "HgN/A
2:00 PM64 °FBroken clouds.21 mph52%29.65 "HgN/A
1:30 PM64 °FBroken clouds.21 mph56%29.65 "HgN/A
1:00 PM64 °FPartly sunny.17 mph64%29.65 "HgN/A
12:30 PM63 °FPartly sunny.16 mph59%29.65 "HgN/A
12:00 PM64 °FPartly sunny.21 mph60%29.65 "HgN/A
11:30 AM63 °FPartly sunny.16 mph59%29.65 "HgN/A
11:00 AM63 °FScattered clouds.16 mph59%29.65 "HgN/A
10:30 AM63 °FScattered clouds.17 mph64%29.65 "HgN/A
10:00 AM61 °FScattered clouds.20 mph63%29.62 "HgN/A
9:30 AM61 °FScattered clouds.17 mph68%29.62 "HgN/A
9:00 AM59 °FPartly sunny.14 mph72%29.62 "HgN/A
8:30 AM59 °FPartly sunny.18 mph72%29.59 "HgN/A
8:00 AM59 °FPartly sunny.16 mph72%29.59 "HgN/A
7:30 AM57 °FPartly sunny.15 mph82%29.56 "HgN/A
7:00 AM57 °FScattered clouds.14 mph82%29.56 "HgN/A
6:30 AM59 °FPartly cloudy.17 mph82%29.53 "HgN/A
6:00 AM61 °FPartly cloudy.16 mph77%29.53 "HgN/A
5:30 AM61 °FPartly cloudy.13 mph83%29.53 "HgN/A
5:00 AM61 °FPartly cloudy.17 mph83%29.50 "HgN/A
4:30 AM61 °FPassing clouds.15 mph83%29.50 "HgN/A
4:00 AM61 °FLight rain. Partly cloudy.20 mph88%29.50 "HgN/A
3:30 AM61 °FLight rain. Partly cloudy.13 mph94%29.50 "HgN/A
3:00 AM61 °FLight rain. Partly cloudy.15 mph94%29.50 "HgN/A
2:30 AM61 °FPartly cloudy.15 mph88%29.53 "HgN/A
2:00 AM61 °FPartly cloudy.15 mph88%29.53 "HgN/A
1:30 AM61 °FPartly cloudy.12 mph88%29.53 "HgN/A
1:00 AM61 °FPartly cloudy.15 mph83%29.56 "HgN/A
12:30 AM61 °FPartly cloudy.16 mph83%29.56 "HgN/A
12:00 AM61 °FPartly cloudy.17 mph83%29.59 "HgN/A
Weather by CustomWeather, © 2015

See weather overviewHow to use our weather pages